Home   Weather   Manchester   Past weeks
Flag for United Kingdom

Past Weather in Manchester, England, United Kingdom — Yesterday and Last 2 Weeks

Now
50 °F

Scattered clouds.


Feels Like: 50 °F
Forecast: 61 / 53 °F
Wind: 2 mph from North

Location: Manchester Airport

Current Time: May 25, 2019 at 6:11:31 am

Latest Report: May 25, 2019 at 5:20 am


Visibility: N/A

Pressure: 30.09 "Hg

Humidity: 94%

Dew Point: 48 °F

Location of ManchesterLocation

Past Weather in Manchester — Graph

°F

Manchester Temperature Yesterday

Maximum temperature yesterday: 63 °F (at 2:50 pm)
Minimum temperature yesterday: 48 °F (at 1:20 am)
Average temperature yesterday: 56 °F

High & Low Weather Summary for the Past Weeks

 TemperatureHumidityPressure
High68 °F (May 14, 3:20 pm)100% (May 10, 11:50 pm)30.72 "Hg (May 10, 11:50 pm)
Low36 °F (May 12, 2:20 am)31% (May 12, 5:50 pm)29.74 "Hg (May 10, 4:20 am)
Average54 °F68%30.13 "Hg
* Reported May 10 4:20 am — May 25 4:50 am, Manchester. Weather by CustomWeather, © 2019

Note: Actual official high and low records may vary slightly from our data, if they occured in-between our weather recording intervals... More about our weather records

Advertising

Manchester Weather History for the Previous 24 Hours

Scroll right to see more
 ConditionsComfort  
Time TempWeatherWind HumidityBarometerVisibility
4:50 am
Sat, May 25
52 °FPassing clouds.6 mph88%30.09 "HgN/A
4:20 am52 °FPassing clouds.7 mph94%30.07 "Hg6 mi
3:50 am52 °FPassing clouds.7 mph94%30.07 "HgN/A
3:20 am54 °FPassing clouds.8 mph94%30.07 "Hg6 mi
2:50 am55 °FLow clouds.10 mph88%30.07 "HgN/A
2:20 am55 °FLow clouds.8 mph88%30.07 "HgN/A
1:50 am55 °FMostly cloudy.7 mph88%30.07 "HgN/A
12:50 am55 °FMostly cloudy.9 mph88%30.07 "HgN/A
12:20 am55 °FMostly cloudy.8 mph88%30.09 "HgN/A
11:50 pm
Fri, May 24
55 °FOvercast.9 mph88%30.09 "HgN/A
11:20 pm55 °FOvercast.3 mph82%30.09 "HgN/A
10:50 pm55 °FMostly cloudy.3 mph82%30.09 "HgN/A
10:20 pm55 °FPartly cloudy.5 mph77%30.09 "HgN/A
9:50 pm55 °FOvercast.3 mph77%30.09 "HgN/A
9:20 pm55 °FOvercast.6 mph77%30.07 "HgN/A
8:50 pm57 °FOvercast.8 mph72%30.07 "HgN/A
8:20 pm57 °FOvercast.6 mph72%30.07 "HgN/A
7:50 pm57 °FOvercast.9 mph72%30.07 "HgN/A
6:50 pm59 °FCool.13 mph68%30.07 "HgN/A
6:20 pm59 °FCool.12 mph68%30.07 "HgN/A
5:50 pm59 °FCool.14 mph68%30.07 "HgN/A
5:20 pm59 °FPassing clouds.14 mph72%30.07 "HgN/A
4:50 pm61 °FPassing clouds.13 mph68%30.07 "HgN/A
4:20 pm61 °FCool.13 mph63%30.07 "HgN/A
3:50 pm61 °FCool.13 mph63%30.07 "HgN/A
3:20 pm61 °FCool.15 mph63%30.07 "HgN/A
2:50 pm63 °FPassing clouds.15 mph59%30.07 "HgN/A
2:20 pm61 °FPartly sunny.14 mph63%30.07 "HgN/A
1:50 pm61 °FPartly sunny.13 mph63%30.07 "HgN/A
1:20 pm61 °FScattered clouds.14 mph63%30.07 "HgN/A
12:50 pm61 °FPassing clouds.15 mph63%30.07 "HgN/A
12:20 pm61 °FScattered clouds.16 mph59%30.07 "HgN/A
11:50 am57 °FScattered clouds.12 mph63%30.07 "HgN/A
11:20 am59 °FBroken clouds.14 mph59%30.07 "HgN/A
10:50 am57 °FPartly sunny.16 mph59%30.07 "HgN/A
10:20 am57 °FScattered clouds.15 mph59%30.07 "HgN/A
9:50 am57 °FPartly sunny.13 mph63%30.07 "HgN/A
9:20 am57 °FScattered clouds.12 mph63%30.07 "HgN/A
8:50 am57 °FPartly sunny.10 mph63%30.07 "HgN/A
8:20 am55 °FScattered clouds.8 mph67%30.04 "HgN/A
7:50 am54 °FScattered clouds.8 mph72%30.04 "HgN/A
7:20 am54 °FPassing clouds.5 mph82%30.04 "HgN/A
6:50 am54 °FHaze.6 mph82%30.04 "HgN/A
6:20 am50 °FFog.3 mph94%30.04 "Hg2 mi
Weather by CustomWeather, © 2019

See weather overview